User: anonymous   Login
Location: Unspecified
(0.0000°N, 0.0000°E)
Time: 16:30:15
(UTC+00:00)
Language:

FALCON 9 R/B - Orbit

View from above orbital plane
View from above orbital plane
View from above satellite
View from above satellite

Ground track
Ground track

The orbit data is extracted from the following two-line orbital elements,

1 41590U 16038C   21101.29425315 -.00000308  00000-0 -19447-3 0  9994
2 41590  25.2334 352.0923 8185738 354.1095   0.7101  1.18369606 20798
Epoch (UTC): 11 April 2021 07:03:43
Eccentricity: 0.8185738
inclination: 25.2334°
perigee height: 470 km
apogee height: 62271 km
right ascension of ascending node: 352.0923°
argument of perigee: 354.1095°
revolutions per day: 1.18369606
mean anomaly at epoch: 0.7101°
orbit number at epoch: 2079

The dashed part of the orbit path shows where the satellite is in the earth's shadow,  

DLR